{"data":{"norad_id":47240,"epoch":"2026-09-18T23:38:38.865120Z","epoch_age_seconds":152799,"freshness":"FRESH","line1":"1 47240U 20096A   26261.98517205 -.00000210  00000+0  00000+0 0  9990","line2":"2 47240   0.0200 125.6505 0004517 358.2157 143.5347  1.00273486  8380","mean_motion":1.00273486,"eccentricity":0.0004517,"inclination_deg":0.02,"raan_deg":125.6505,"arg_perigee_deg":358.2157,"mean_anomaly_deg":143.5347,"bstar":0,"rev_number":838,"period_min":1436.072542646,"perigee_km":35767.072521848,"apogee_km":35805.163709919,"semimajor_km":42164.255115884,"source":"CELESTRAK","updated_at":"2026-09-20T09:00:35.296525Z"}}